Flag for U.S.A. Weather past 2 weeks in Rockford, Illinois, U.S.A.

Now
62 °F

Passing clouds.


Feels Like: 62 °F
Forecast: 32 / 62 °F
Wind: 6 mph from North

Location: Greater Rockford Airport

Current Time: Apr 27, 2015 at 2:40:09 PM

Latest Report: Apr 27, 2015 at 1:54 PM


Visibility: 10 mi

Pressure: 30.14 "Hg

Humidity: 34%

Dew point: 33 °F

Location of RockfordLocation

Historic Weather in Rockford — Graph

°F

Rockford temperature yesterday

Maximum temperature yesterday: 60 °F (at 2:54 PM)
Minimum temperature yesterday: 33 °F (at 4:54 AM)
Average temperature yesterday: 48 °F

Past Weeks' High & Low Weather Summary

 TemperatureHumidityPressure
High79 °F (Apr 17, 1:54 PM)92% (Apr 20, 4:54 AM)30.30 "Hg (Apr 20, 4:54 AM)
Low29 °F (Apr 24, 5:54 AM)15% (Apr 14, 3:54 PM)29.26 "Hg (Apr 20, 4:54 AM)
Average52 °F51%29.95 "Hg
* Reported Apr 12 12:54 PM — Apr 27 12:54 PM, Rockford, Weather by CustomWeather, © 2015

Note: Actual official high and low records may vary slightly from our data, if they occured in-between our weather recording intervals... More about our weather records

Advertising

Rockford weather history for previous 24 hours

 ConditionsComfort  
Time TempWeatherWind HumidityBarometerVisibility
12:54 PM
Mon, Apr 27
61 °FPassing clouds.14 mph34%30.15 "Hg10 mi
11:54 AM59 °FPassing clouds.16 mph36%30.16 "Hg10 mi
10:54 AM56 °FSunny.14 mph42%30.17 "Hg10 mi
9:54 AM53 °FSunny.9 mph48%30.19 "Hg10 mi
8:54 AM49 °FSunny.8 mph52%30.19 "Hg10 mi
7:54 AM45 °FSunny.6 mph60%30.17 "Hg10 mi
6:54 AM38 °FClear.3 mph73%30.15 "Hg10 mi
5:54 AM36 °FClear.3 mph73%30.11 "Hg10 mi
4:54 AM36 °FClear.6 mph73%30.11 "Hg10 mi
3:54 AM37 °FClear.No wind70%30.11 "Hg10 mi
2:54 AM38 °FClear.7 mph68%30.12 "Hg10 mi
1:54 AM40 °FClear.6 mph60%30.11 "Hg10 mi
12:54 AM41 °FClear.3 mph53%30.12 "Hg10 mi
11:54 PM
Sun, Apr 26
44 °FClear.No wind49%30.11 "Hg10 mi
10:54 PM45 °FClear.7 mph51%30.09 "Hg10 mi
9:54 PM46 °FClear.No wind51%30.06 "Hg10 mi
8:54 PM50 °FClear.6 mph43%30.05 "Hg10 mi
7:54 PM55 °FSunny.12 mph29%30.03 "Hg10 mi
6:54 PM58 °FSunny.14 mph28%30.03 "Hg10 mi
5:54 PM60 °FSunny.15 mph28%30.03 "Hg10 mi
4:54 PM60 °FSunny.16 mph30%30.03 "Hg10 mi
3:54 PM60 °FPassing clouds.13 mph31%30.03 "Hg10 mi
2:54 PM60 °FPassing clouds.13 mph31%30.05 "Hg10 mi
Weather by CustomWeather, © 2015

See weather overviewHow to use our weather pages